[[{"header":{"parameterUnit":"m.s-1","parameterCategory":1,"la1":30.2991,"la2":30.254,"lo1":-89.0895,"lo2":-89.0444,"dy":0.0017,"dx":0.0017,"nx":28,"ny":28,"refTime":"2024-02-19T09:00:00:Z","depth":0,"parameterNumber":2,"parameterNumberName":"U-component_of_WINDS"},"data":[0,0,0,0,0,0,0,0,0,0,0,0,0,0,0,0,0,0,0,0,0,0,0,0,0,0,0,0,0,0,0,0,0,0,0,0,0,0,0,0,0,0,0,0,0,0,0,0,0,0,0,0,0,0,0,0,0,0,-1.1508,-1.1509,0,-1.1546,-1.1546,-1.1546,-1.1499,-1.1497,-1.1496,-1.1494,-1.1535,-1.1537,-1.154,0,0,0,0,0,0,0,0,0,0,0,0,0,-1.1398,-1.14,-1.1508,-1.1509,-1.1509,-1.1546,-1.1546,-1.1547,-1.1499,-1.1497,-1.1495,-1.1493,-1.1534,-1.1537,-1.154,0,0,0,0,0,0,0,0,0,0,0,0,0,-1.1442,-1.1401,-1.1508,-1.149,-1.1489,-1.1545,-1.1546,-1.1547,-1.15,-1.1497,-1.1495,-1.1492,-1.1533,-1.1537,-1.1541,-1.1618,0,0,-1.1553,-1.1555,0,0,0,0,0,0,0,0,-1.1439,-1.1446,-1.1492,-1.1491,-1.149,-1.1515,-1.1522,-1.1571,-1.15,-1.1496,-1.1494,-1.1491,-1.153,-1.1534,-1.1547,-1.162,-1.1622,-1.1553,-1.1556,-1.1558,-1.1559,0,0,0,0,0,0,0,-1.1436,-1.1444,-1.1523,-1.1493,-1.1492,-1.1481,-1.1484,-1.1531,-1.1527,-1.1496,-1.1492,-1.1497,-1.1529,-1.1544,-1.1548,-1.1622,-1.1553,-1.1557,-1.1559,-1.1561,-1.1761,-1.1763,0,0,0,0,0,0,-1.1435,-1.1442,-1.1522,-1.1524,-1.1458,-1.1485,-1.1488,-1.151,-1.1527,-1.1527,-1.15,-1.1495,-1.1538,-1.1543,-1.1549,-1.1642,-1.1558,-1.1561,-1.1564,-1.1758,-1.1761,-1.1764,0,0,0,0,0,0,-1.1433,-1.1443,-1.152,-1.1482,-1.1491,-1.1489,-1.1514,-1.1512,-1.1526,-1.1529,-1.1529,-1.1515,-1.1536,-1.1543,-1.1601,-1.1642,-1.1563,-1.1567,-1.1754,-1.1759,-1.1763,-1.1827,0,0,0,0,0,0,-1.143,-1.1442,-1.1471,-1.1483,-1.1493,-1.1572,-1.1516,-1.1514,-1.1533,-1.1527,-1.1543,-1.1544,-1.1535,-1.1595,-1.1605,-1.1647,-1.157,-1.1751,-1.1756,-1.1761,-1.1821,-1.1833,-1.1843,0,0,0,0,0,-1.1426,-1.1488,-1.1473,-1.1483,-1.1529,-1.1574,-1.158,-1.1568,-1.1536,-1.1566,-1.1568,-1.1543,-1.1636,-1.1602,-1.1612,-1.1656,-1.1748,-1.1755,-1.1761,-1.1816,-1.1831,-1.1843,0,0,0,0,0,0,-1.1482,-1.149,-1.1473,-1.154,-1.1557,-1.1566,-1.1603,-1.1583,-1.1609,-1.1603,-1.1587,-1.1591,-1.1653,-1.166,-1.1622,-1.1731,-1.1687,-1.1696,-1.1725,-1.1739,-1.175,-1.1748,-1.1573,0,0,0,0,0,-1.1502,-1.1537,-1.1542,-1.1601,-1.161,-1.1605,-1.1624,-1.1613,-1.163,-1.1637,-1.1643,-1.1661,-1.1694,-1.1716,-1.1747,-1.1821,-1.1825,-1.1856,-1.1867,-1.1876,-1.1885,-1.1925,-1.194,-1.1786,-1.1785,-1.1785,0,0,-1.1545,-1.1553,-1.1576,-1.1613,-1.1624,-1.1662,-1.1611,-1.1653,-1.1681,-1.1643,-1.1699,-1.1704,-1.1722,-1.1789,-1.1819,-1.1796,-1.1927,-1.1884,-1.1891,-1.1895,-1.1933,-1.1948,-1.1961,-1.179,-1.1789,-1.1788,0,0,-1.1641,-1.165,-1.1701,-1.1713,-1.1731,-1.1727,-1.1739,-1.1751,-1.1753,-1.1808,-1.1781,-1.1813,-1.187,-1.1885,-1.1901,-1.2002,-1.198,-1.2012,-1.207,-1.211,-1.2122,-1.2133,-1.217,-1.2184,-1.202,-1.202,-1.202,0,-1.1692,-1.1747,-1.173,-1.1774,-1.1791,-1.1757,-1.1809,-1.1822,-1.1849,-1.1862,-1.1836,-1.1907,-1.1918,-1.1988,-1.2012,-1.2025,-1.2039,-1.2011,-1.2121,-1.2132,-1.2142,-1.2177,-1.2191,-1.2024,-1.2023,-1.2023,-1.2023,0,-1.1809,-1.1847,-1.1886,-1.1913,-1.1934,-1.1982,-1.1973,-1.1996,-1.1983,-1.1982,-1.2038,-1.2049,-1.2082,-1.2097,-1.2084,-1.2165,-1.2151,-1.2123,-1.2079,-1.216,-1.2194,-1.2207,-1.203,-1.2028,-1.2027,-1.2026,0,0,-1.1945,-1.196,-1.1975,-1.1987,-1.2003,-1.2033,-1.2079,-1.2109,-1.2131,-1.215,-1.2189,-1.2238,-1.2212,-1.2229,-1.2218,-1.2253,-1.2334,-1.2221,-1.2221,-1.2243,-1.2425,-1.2448,-1.2464,-1.2318,-1.2321,-1.2323,-1.2424,0,-1.2043,-1.2122,-1.2108,-1.2185,-1.2221,-1.2189,-1.2229,-1.2244,-1.2243,-1.2274,-1.2274,-1.2309,-1.2272,-1.2282,-1.2315,-1.2317,-1.2371,-1.2309,-1.2357,-1.2358,-1.2355,-1.2481,-1.2505,-1.26,-1.2437,-1.2439,-1.2441,0,-1.2168,-1.2192,-1.2273,-1.2284,-1.2298,-1.2334,-1.2362,-1.2391,-1.2407,-1.2405,-1.2423,-1.2405,-1.2452,-1.2404,-1.2469,-1.2427,-1.2445,-1.2449,-1.2453,-1.2459,-1.2406,-1.2493,-1.263,-1.2645,-1.2461,-1.2459,-1.2458,0,-1.2261,-1.2313,-1.2368,-1.2379,-1.2393,-1.2419,-1.2426,-1.2439,-1.2459,-1.2483,-1.2495,-1.2524,-1.2541,-1.2564,-1.2555,-1.2521,-1.2622,-1.2573,-1.2622,-1.2623,-1.2647,-1.2646,-1.2792,-1.2655,-1.2655,-1.2655,-1.2654,0,-1.2374,-1.2425,-1.241,-1.2445,-1.2501,-1.2484,-1.2541,-1.2544,-1.2556,-1.2591,-1.2564,-1.2597,-1.2582,-1.2614,-1.2607,-1.2662,-1.2669,-1.2669,-1.2667,-1.2673,-1.2674,-1.2687,-1.2681,-1.2658,-1.2658,-1.2657,-1.2656,0,-1.2489,-1.248,-1.2539,-1.2546,-1.2549,-1.2591,-1.2598,-1.263,-1.2627,-1.2672,-1.2681,-1.2677,-1.2714,-1.2706,-1.2746,-1.2741,-1.2812,-1.28,-1.2806,-1.2805,-1.2855,-1.2851,-1.3016,-1.3038,-1.2885,-1.2886,-1.2887,0,-1.2562,-1.2601,-1.2612,-1.2633,-1.2642,-1.2676,-1.2696,-1.268,-1.2702,-1.2723,-1.2753,-1.2787,-1.2814,-1.2874,-1.2875,-1.2906,-1.2897,-1.2952,-1.2901,-1.2906,-1.29,-1.2899,-1.2903,-1.2963,-1.2965,-1.2966,-1.2967,0,-1.2694,-1.2688,-1.2717,-1.2745,-1.2769,-1.279,-1.2809,-1.2827,-1.2813,-1.2839,-1.2876,-1.2896,-1.2937,-1.2972,-1.3,-1.3008,-1.2986,-1.2983,-1.2996,-1.3004,-1.3007,-1.3008,-1.2836,-1.298,-1.2979,-1.2978,-1.2977,-1.2977,-1.2792,-1.2825,-1.2839,-1.2872,-1.2884,-1.2902,-1.2933,-1.2933,-1.2963,-1.2995,-1.2984,-1.3026,-1.3041,-1.3077,-1.3088,-1.3121,-1.3101,-1.312,-1.3125,-1.313,-1.3138,-1.3,-1.3126,-1.3126,-1.3125,-1.3125,-1.3125,0,-1.2925,-1.2931,-1.2962,-1.2989,-1.3015,-1.299,-1.3009,-1.3033,-1.3071,-1.3086,-1.3112,-1.3155,-1.3188,-1.3191,-1.3223,-1.3249,-1.324,-1.3258,-1.3258,-1.326,-1.3153,-1.314,-1.3265,-1.3265,-1.3265,-1.3265,-1.3265,-1.3265,-1.2997,-1.3052,-1.3048,-1.3109,-1.3114,-1.3156,-1.3169,-1.3186,-1.3198,-1.3246,-1.3274,-1.3275,-1.3286,-1.3317,-1.3347,-1.3347,-1.3361,-1.3384,-1.338,-1.3281,-1.3267,-1.3254,-1.3241,-1.3386,-1.3386,-1.3484,-1.3485,-1.3486]},{"header":{"parameterUnit":"m.s-1","parameterCategory":1,"la1":30.2991,"la2":30.254,"lo1":-89.0895,"lo2":-89.0444,"dy":0.0017,"dx":0.0017,"nx":28,"ny":28,"refTime":"2024-02-19T09:00:00:Z","depth":0,"parameterNumber":3,"parameterNumberName":"V-component_of_WINDS"},"data":[0,0,0,0,0,0,0,0,0,0,0,0,0,0,0,0,0,0,0,0,0,0,0,0,0,0,0,0,0,0,0,0,0,0,0,0,0,0,0,0,0,0,0,0,0,0,0,0,0,0,0,0,0,0,0,0,0,0,-3.3192,-3.3193,0,-3.3265,-3.3266,-3.3267,-3.3229,-3.3227,-3.3226,-3.3224,-3.3296,-3.3299,-3.3303,0,0,0,0,0,0,0,0,0,0,0,0,0,-3.3019,-3.3022,-3.3192,-3.3193,-3.3194,-3.3265,-3.3266,-3.3267,-3.323,-3.3227,-3.3225,-3.3223,-3.3295,-3.3299,-3.3303,0,0,0,0,0,0,0,0,0,0,0,0,0,-3.3093,-3.3023,-3.3192,-3.3184,-3.3184,-3.3265,-3.3266,-3.3267,-3.323,-3.3227,-3.3224,-3.3222,-3.3293,-3.3299,-3.3304,-3.3396,0,0,-3.3321,-3.3323,0,0,0,0,0,0,0,0,-3.3089,-3.3099,-3.3184,-3.3185,-3.3185,-3.3235,-3.3231,-3.331,-3.3231,-3.3213,-3.3224,-3.322,-3.3278,-3.3284,-3.3304,-3.3399,-3.3402,-3.3321,-3.3325,-3.3327,-3.3329,0,0,0,0,0,0,0,-3.3084,-3.3096,-3.3221,-3.3186,-3.3186,-3.3176,-3.3184,-3.3246,-3.326,-3.3214,-3.3211,-3.3221,-3.3277,-3.3299,-3.3306,-3.3404,-3.3321,-3.3326,-3.333,-3.3332,-3.3578,-3.3582,0,0,0,0,0,0,-3.3079,-3.3092,-3.3219,-3.3223,-3.3129,-3.3182,-3.319,-3.3222,-3.326,-3.3263,-3.3223,-3.3219,-3.3291,-3.3299,-3.3308,-3.3419,-3.3327,-3.3332,-3.3336,-3.3575,-3.3579,-3.3583,0,0,0,0,0,0,-3.3076,-3.3091,-3.3216,-3.3157,-3.3172,-3.3188,-3.3224,-3.3225,-3.3247,-3.3267,-3.3269,-3.3243,-3.3289,-3.33,-3.3375,-3.3421,-3.3335,-3.334,-3.3572,-3.3577,-3.3581,-3.3642,0,0,0,0,0,0,-3.3071,-3.309,-3.3126,-3.3158,-3.3175,-3.3282,-3.3227,-3.3228,-3.3257,-3.3252,-3.3286,-3.3288,-3.3288,-3.3367,-3.338,-3.3427,-3.3344,-3.3567,-3.3574,-3.3579,-3.3636,-3.3648,-3.3659,0,0,0,0,0,-3.3065,-3.3139,-3.3128,-3.3143,-3.3221,-3.3285,-3.3295,-3.3293,-3.3261,-3.3296,-3.3309,-3.3287,-3.3414,-3.3375,-3.339,-3.3439,-3.3565,-3.3572,-3.3579,-3.3631,-3.3646,-3.3659,0,0,0,0,0,0,-3.3111,-3.3143,-3.3131,-3.3218,-3.3249,-3.3278,-3.3324,-3.3309,-3.3349,-3.3343,-3.3338,-3.3346,-3.3424,-3.3438,-3.3394,-3.353,-3.3484,-3.3495,-3.3518,-3.3533,-3.3544,-3.3539,-3.3349,0,0,0,0,0,-3.3131,-3.3181,-3.3207,-3.3281,-3.3297,-3.3308,-3.3336,-3.3332,-3.3364,-3.3376,-3.3395,-3.3425,-3.3472,-3.3503,-3.3547,-3.3637,-3.3645,-3.3679,-3.369,-3.37,-3.3709,-3.3759,-3.3775,-3.3606,-3.3606,-3.3606,0,0,-3.3173,-3.3197,-3.3229,-3.3291,-3.3315,-3.3366,-3.3319,-3.3376,-3.3414,-3.3385,-3.3457,-3.3471,-3.3505,-3.3589,-3.3626,-3.3603,-3.3757,-3.3709,-3.3716,-3.3721,-3.3768,-3.3784,-3.3798,-3.3611,-3.361,-3.361,0,0,-3.3277,-3.33,-3.3365,-3.339,-3.3427,-3.3434,-3.3449,-3.3481,-3.349,-3.3563,-3.3542,-3.3587,-3.3667,-3.3693,-3.3716,-3.383,-3.3812,-3.3845,-3.3905,-3.3954,-3.3967,-3.3979,-3.402,-3.4035,-3.3854,-3.3854,-3.3854,0,-3.3325,-3.3403,-3.34,-3.3459,-3.3487,-3.3464,-3.353,-3.3553,-3.3602,-3.3622,-3.3596,-3.3697,-3.3718,-3.3808,-3.3836,-3.3855,-3.3873,-3.3841,-3.3965,-3.3977,-3.3988,-3.4028,-3.4043,-3.3858,-3.3857,-3.3857,-3.3857,0,-3.3461,-3.3515,-3.3563,-3.3613,-3.3646,-3.3707,-3.3714,-3.3747,-3.374,-3.375,-3.3824,-3.3848,-3.3898,-3.3918,-3.3911,-3.4007,-3.3992,-3.3966,-3.3919,-3.4008,-3.4045,-3.406,-3.3863,-3.3862,-3.3861,-3.386,0,0,-3.3596,-3.3643,-3.3661,-3.3684,-3.3723,-3.3765,-3.3825,-3.3874,-3.3904,-3.3938,-3.3989,-3.4058,-3.4034,-3.4061,-3.4057,-3.4099,-3.419,-3.4068,-3.4069,-3.4091,-3.4297,-3.4318,-3.4336,-3.4177,-3.418,-3.4182,-3.4295,0,-3.3703,-3.3811,-3.3811,-3.391,-3.396,-3.3939,-3.3992,-3.4021,-3.4032,-3.4075,-3.4086,-3.4135,-3.41,-3.4116,-3.4157,-3.417,-3.4231,-3.4162,-3.4225,-3.4227,-3.4219,-3.4355,-3.4376,-3.4482,-3.4309,-3.4312,-3.4314,0,-3.3843,-3.3884,-3.3989,-3.4022,-3.4043,-3.4091,-3.4136,-3.4178,-3.4211,-3.4215,-3.4246,-3.4235,-3.4296,-3.4247,-3.4332,-3.4285,-3.431,-3.4321,-3.4325,-3.4331,-3.4277,-3.4366,-3.4515,-3.4531,-3.4336,-3.4335,-3.4333,0,-3.3933,-3.4014,-3.4087,-3.4107,-3.4146,-3.4181,-3.4199,-3.4229,-3.4258,-3.4298,-3.4317,-3.4362,-3.4387,-3.4422,-3.4424,-3.4388,-3.451,-3.4461,-3.4515,-3.4516,-3.4543,-3.4542,-3.4699,-3.4558,-3.4557,-3.4557,-3.4557,0,-3.4054,-3.4119,-3.4128,-3.4174,-3.4246,-3.4244,-3.4316,-3.433,-3.4357,-3.4405,-3.4388,-3.4433,-3.4432,-3.4477,-3.4479,-3.4549,-3.456,-3.4565,-3.4565,-3.4568,-3.4567,-3.4585,-3.4579,-3.4561,-3.456,-3.4559,-3.4559,0,-3.4167,-3.4175,-3.4254,-3.4286,-3.4295,-3.4347,-3.4374,-3.4417,-3.4425,-3.4486,-3.45,-3.4513,-3.4566,-3.4571,-3.4631,-3.4632,-3.4718,-3.4709,-3.4707,-3.4706,-3.4761,-3.4757,-3.4937,-3.4961,-3.4803,-3.4804,-3.4805,0,-3.4244,-3.4294,-3.4331,-3.4363,-3.4383,-3.4433,-3.4464,-3.4463,-3.4496,-3.4538,-3.4576,-3.4627,-3.4668,-3.4753,-3.4768,-3.4814,-3.4807,-3.4867,-3.4814,-3.4815,-3.4809,-3.4807,-3.4812,-3.4878,-3.4879,-3.4881,-3.4882,0,-3.4381,-3.4383,-3.4428,-3.4476,-3.4513,-3.455,-3.4585,-3.4611,-3.4615,-3.4652,-3.4707,-3.4739,-3.4801,-3.4853,-3.4898,-3.4916,-3.49,-3.4898,-3.4914,-3.4917,-3.4915,-3.4918,-3.4737,-3.4894,-3.4893,-3.4892,-3.4892,-3.4891,-3.4479,-3.4523,-3.4557,-3.4608,-3.4634,-3.4667,-3.471,-3.4724,-3.477,-3.4822,-3.4818,-3.4878,-3.491,-3.497,-3.4991,-3.5038,-3.5017,-3.5039,-3.5045,-3.5051,-3.5057,-3.4907,-3.5046,-3.5045,-3.5045,-3.5045,-3.5044,0,-3.4616,-3.4637,-3.4684,-3.4734,-3.4774,-3.4757,-3.4794,-3.4829,-3.4883,-3.4914,-3.4955,-3.5018,-3.5067,-3.5086,-3.5134,-3.5168,-3.5162,-3.5181,-3.5179,-3.5184,-3.5072,-3.5054,-3.5185,-3.5185,-3.5185,-3.5185,-3.5185,-3.5185,-3.4692,-3.4766,-3.4772,-3.4859,-3.4878,-3.4938,-3.4961,-3.4992,-3.5017,-3.5088,-3.513,-3.5142,-3.5168,-3.5219,-3.5263,-3.5267,-3.5287,-3.5309,-3.531,-3.5206,-3.5191,-3.5178,-3.5162,-3.5313,-3.5313,-3.5418,-3.5419,-3.542]}]]